Location: Fredericksburg
(30.2750°N, 98.8720°W)
Time: 21:05:41
(UTC-05:00)

PCSat - Pass Details

Date: 29 May 2018
Orbit: 784 x 795 km, 67.1° (Epoch: 17 August)

Event Time Altitude Azimuth Distance (km) Brightness Sun altitude
Exits shadow 03:14:06 13° 103° (ESE) 2,110 11.9 -32.7°
Drops below altitude 10° 03:16:32 10° 76° (ENE) 2,345 12.5 -32.4°
Sets 03:20:14 0° 50° (NE) 3,281 13.7 -32.0°
